Вернуться в каталог

METEOR 2-8 DEB

АктивенPO
NORAD 36857·DEBRIS·🇷🇺 Russia

Запущен Mar 25, 1982 с Plesetsk Cosmodrome

Loading…

Ближайшие Пролёты (ближайшие 24 часа)

TLE

СвежийSource: Space-Track

Эпоха: Sep 13, 2026, 09:40 UTC

1 36857U 82025AU  26256.40280529  .00001609  00000-0  69489-3 0  9992
2 36857  82.5374 136.8911 0036182 197.4378 162.5565 14.23616794124705

Отслеживайте METEOR 2-8 DEB в реальном времени с AllMySat

Download on the App Store